Date String (YYYY-MM-DD hh:mm:ss) UTC,Instrument flags,absolute air pressure of the measurement (hPa),sample flow rate (lpm),inlet stack bypass flow (lpm),air temperature of the measurement (°C),ambient temperature measured by the external sensor (°C),aerosol sample conditioner tube jacket temperature (°C),OPC LED temperature (°C),internal box temperature (°C),relative humidity of the measurement (%),span deviation,mass concentration of particles derived from Lorenz-Mie calculation of OPC scattering (μg/m³),mass concentration of particles derived from Lorenz-Mie calculation of OPC scattering (μg/m³),mass concentration of particles derived from Lorenz-Mie calculation of OPC scattering (μg/m³)
DateTimeUTC,F1_M11,P_M11,Q1_M11,Q2_M11,T1_M11,T2_M11,T3_M11,T4_M11,T5_M11,U1_M11,ZSPAN_M11,X2_M11,X0_M11,X1_M11
2023-09-05 22:00:00,SystemResetWarning,0833.1,5.00,000.00,028.1,027.0,000.0,036.3,029.9,26.7,0000.0,0004.07,0011.78,0003.34
2023-09-05 22:01:00,SystemResetWarning,0833.1,5.01,000.00,028.2,027.2,000.0,036.3,029.9,26.8,0000.0,0004.09,0012.00,0003.34
2023-09-05 22:02:00,SystemResetWarning,0833.0,5.01,000.00,028.2,027.3,000.0,036.4,030.0,26.6,0000.0,0004.10,0012.22,0003.33
2023-09-05 22:03:00,SystemResetWarning,0833.0,4.98,000.00,028.2,026.1,000.0,036.3,029.6,26.1,0000.0,0004.08,0011.95,0003.34
2023-09-05 22:04:00,SystemResetWarning,0833.0,5.00,000.00,028.1,024.5,000.0,036.3,029.2,26.0,0000.0,0004.06,0012.11,0003.34
2023-09-05 22:05:00,SystemResetWarning,0833.0,5.00,000.00,027.9,024.2,000.0,036.2,029.1,26.0,0000.0,0004.03,0012.24,0003.33
2023-09-05 22:06:00,SystemResetWarning,0833.3,5.01,000.00,027.9,024.4,000.0,036.2,029.1,26.1,0000.0,0004.03,0011.89,0003.33
2023-09-05 22:07:00,SystemResetWarning,0833.0,5.01,000.00,027.8,024.8,000.0,036.2,029.2,26.8,0000.0,0003.99,0011.89,0003.33
2023-09-05 22:08:00,SystemResetWarning,0833.0,5.00,000.00,027.8,025.3,000.0,036.2,029.3,26.6,0000.0,0003.92,0011.77,0003.32
2023-09-05 22:09:00,SystemResetWarning,0833.2,5.00,000.00,027.9,025.7,000.0,036.2,029.4,26.4,0000.0,0003.94,0012.56,0003.31
2023-09-05 22:10:00,SystemResetWarning,0833.2,5.00,000.00,027.9,026.1,000.0,036.2,029.5,26.4,0000.0,0003.95,0012.40,0003.29
2023-09-05 22:11:00,SystemResetWarning,0833.1,5.00,000.00,028.0,026.4,000.0,036.3,029.6,26.3,0000.0,0003.91,0011.96,0003.26
2023-09-05 22:12:00,SystemResetWarning,0833.2,4.99,000.00,028.0,026.7,000.0,036.3,029.7,25.8,0000.0,0003.85,0011.22,0003.24
2023-09-05 22:13:00,SystemResetWarning,0833.2,5.00,000.00,028.1,026.9,000.0,036.3,029.8,26.1,0000.0,0003.81,0010.90,0003.23
2023-09-05 22:14:00,SystemResetWarning,0833.2,5.00,000.00,028.1,027.1,000.0,036.3,029.9,26.2,0000.0,0003.80,0010.90,0003.21
2023-09-05 22:15:00,SystemResetWarning,0833.2,5.00,000.00,028.2,027.3,000.0,036.4,030.0,26.1,0000.0,0003.79,0011.06,0003.19
2023-09-05 22:16:00,SystemResetWarning,0833.2,5.00,000.00,028.3,027.2,000.0,036.4,030.0,25.7,0000.0,0003.77,0012.21,0003.19
2023-09-05 22:17:00,SystemResetWarning,0833.2,5.00,000.00,028.2,025.9,000.0,036.3,029.6,25.7,0000.0,0003.75,0011.94,0003.18
2023-09-05 22:18:00,SystemResetWarning,0833.2,5.00,000.00,028.1,024.4,000.0,036.3,029.2,26.4,0000.0,0003.72,0011.81,0003.18
2023-09-05 22:19:00,SystemResetWarning,0833.2,5.01,000.00,028.0,024.3,000.0,036.2,029.2,26.5,0000.0,0003.73,0012.16,0003.18
2023-09-05 22:20:00,SystemResetWarning,0833.2,5.01,000.00,027.9,024.6,000.0,036.2,029.2,26.5,0000.0,0003.71,0011.95,0003.19
2023-09-05 22:21:00,SystemResetWarning,0833.2,5.00,000.00,027.9,025.0,000.0,036.2,029.3,26.0,0000.0,0003.76,0012.52,0003.20
2023-09-05 22:22:00,SystemResetWarning,0833.2,5.00,000.00,027.9,025.4,000.0,036.2,029.4,26.1,0000.0,0003.78,0012.10,0003.22
2023-09-05 22:23:00,SystemResetWarning,0833.2,5.00,000.00,027.9,025.7,000.0,036.2,029.4,26.0,0000.0,0003.81,0012.88,0003.23
2023-09-05 22:24:00,SystemResetWarning,0833.2,4.99,000.00,027.9,025.9,000.0,036.2,029.5,26.2,0000.0,0003.84,0013.24,0003.23
2023-09-05 22:25:00,SystemResetWarning,0833.2,4.99,000.00,027.9,026.2,000.0,036.2,029.5,26.3,0000.0,0003.85,0013.15,0003.23
2023-09-05 22:26:00,SystemResetWarning,0833.2,4.99,000.00,027.9,026.4,000.0,036.2,029.6,26.4,0000.0,0003.85,0012.78,0003.23
2023-09-05 22:27:00,SystemResetWarning,0833.3,5.00,000.00,028.0,026.5,000.0,036.3,029.6,26.0,0000.0,0003.87,0011.82,0003.23
2023-09-05 22:28:00,SystemResetWarning,0833.3,5.00,000.00,028.0,026.7,000.0,036.3,029.6,25.8,0000.0,0003.89,0012.56,0003.24
2023-09-05 22:29:00,SystemResetWarning,0833.2,5.01,000.00,028.0,026.8,000.0,036.3,029.7,25.9,0000.0,0003.89,0012.45,0003.23
2023-09-05 22:30:00,SystemResetWarning,0833.3,5.01,000.00,028.0,026.9,000.0,036.3,029.6,26.0,0000.0,0003.88,0011.94,0003.22
2023-09-05 22:31:00,SystemResetWarning,0833.3,4.99,000.00,028.0,026.7,000.0,036.3,029.6,26.0,0000.0,0003.87,0011.47,0003.21
2023-09-05 22:32:00,SystemResetWarning,0833.3,4.99,000.00,027.9,025.3,000.0,036.3,029.2,25.9,0000.0,0003.86,0010.89,0003.22
2023-09-05 22:33:00,SystemResetWarning,0833.3,5.01,000.00,027.8,024.6,000.0,036.2,029.1,26.0,0000.0,0003.90,0010.68,0003.26
2023-09-05 22:34:00,SystemResetWarning,0833.3,5.01,000.00,027.8,024.8,000.0,036.2,029.1,26.2,0000.0,0003.91,0010.24,0003.29
2023-09-05 22:35:00,SystemResetWarning,0833.3,5.00,000.00,027.7,025.1,000.0,036.2,029.2,26.1,0000.0,0003.93,0009.98,0003.32
2023-09-05 22:36:00,SystemResetWarning,0833.3,5.00,000.00,027.8,025.4,000.0,036.2,029.3,26.2,0000.0,0003.95,0010.59,0003.35
2023-09-05 22:37:00,SystemResetWarning,0833.4,5.00,000.00,027.8,025.7,000.0,036.2,029.4,26.1,0000.0,0003.97,0010.70,0003.39
2023-09-05 22:38:00,SystemResetWarning,0833.3,5.00,000.00,027.8,026.0,000.0,036.2,029.5,26.0,0000.0,0003.99,0010.74,0003.42
2023-09-05 22:39:00,SystemResetWarning,0833.3,5.00,000.00,027.8,026.2,000.0,036.2,029.5,26.2,0000.0,0003.98,0011.06,0003.44
2023-09-05 22:40:00,SystemResetWarning,0833.3,5.00,000.00,027.9,026.4,000.0,036.2,029.5,26.4,0000.0,0004.01,0012.08,0003.47
2023-09-05 22:41:00,SystemResetWarning,0833.3,5.00,000.00,027.9,026.5,000.0,036.2,029.6,26.3,0000.0,0004.07,0013.14,0003.50
2023-09-05 22:42:00,SystemResetWarning,0833.3,5.00,000.00,027.9,026.6,000.0,036.2,029.6,26.3,0000.0,0004.15,0013.59,0003.54
2023-09-05 22:43:00,SystemResetWarning,0833.3,4.99,000.00,027.9,026.7,000.0,036.2,029.7,25.9,0000.0,0004.16,0014.40,0003.56
2023-09-05 22:44:00,SystemResetWarning,0833.3,5.00,000.00,027.9,025.5,000.0,036.2,029.4,26.2,0000.0,0004.12,0014.74,0003.55
2023-09-05 22:45:00,SystemResetWarning,0833.3,5.00,000.00,027.8,024.1,000.0,036.1,028.9,26.0,0000.0,0004.12,0014.78,0003.54
2023-09-05 22:46:00,SystemResetWarning,0833.3,5.01,000.00,027.7,023.8,000.0,036.1,028.9,26.5,0000.0,0004.20,0015.12,0003.56
2023-09-05 22:47:00,SystemResetWarning,0833.3,5.01,000.00,027.6,024.1,000.0,036.1,028.9,26.5,0000.0,0004.24,0014.59,0003.59
2023-09-05 22:48:00,SystemResetWarning,0833.3,4.99,000.00,027.6,024.6,000.0,036.0,028.9,26.2,0000.0,0004.29,0014.81,0003.60
2023-09-05 22:49:00,SystemResetWarning,0833.3,4.99,000.00,027.6,024.9,000.0,036.0,029.0,26.3,0000.0,0004.34,0014.46,0003.61
2023-09-05 22:50:00,SystemResetWarning,0833.4,5.00,000.00,027.6,025.3,000.0,036.0,029.1,26.5,0000.0,0004.38,0014.22,0003.63
2023-09-05 22:51:00,SystemResetWarning,0833.4,5.01,000.00,027.6,025.5,000.0,036.0,029.2,26.5,0000.0,0004.41,0013.61,0003.65
2023-09-05 22:52:00,SystemResetWarning,0833.4,5.00,000.00,027.6,025.8,000.0,036.0,029.2,26.5,0000.0,0004.43,0013.88,0003.68
2023-09-05 22:53:00,SystemResetWarning,0833.4,5.00,000.00,027.6,026.0,000.0,036.0,029.3,26.2,0000.0,0004.43,0014.83,0003.69
2023-09-05 22:54:00,SystemResetWarning,0833.4,4.99,000.00,027.7,026.2,000.0,036.0,029.4,26.4,0000.0,0004.45,0013.95,0003.70
2023-09-05 22:55:00,SystemResetWarning,0833.4,5.00,000.00,027.7,026.3,000.0,036.0,029.4,26.0,0000.0,0004.53,0013.87,0003.72
2023-09-05 22:56:00,SystemResetWarning,0833.4,5.00,000.00,027.7,026.4,000.0,036.1,029.4,26.2,0000.0,0004.58,0013.87,0003.73
2023-09-05 22:57:00,SystemResetWarning,0833.4,5.01,000.00,027.7,026.5,000.0,036.1,029.5,26.0,0000.0,0004.51,0013.38,0003.73
2023-09-05 22:58:00,SystemResetWarning,0833.4,5.01,000.00,027.8,026.7,000.0,036.1,029.5,26.2,0000.0,0004.46,0013.11,0003.71
2023-09-05 22:59:00,SystemResetWarning,0833.4,5.00,000.00,027.8,026.8,000.0,036.1,029.6,26.4,0000.0,0004.44,0012.86,0003.71
